CW3794 Weather Reports


Display with metric or nautical units.
time (UTC)temp
F
wind
direction
speed
MPH
gust
MPH
rain 1hr
in
rain 24hr
in
rain mn
in
humidity
%
barometer
mb
20170426134406 64 354 0.0 4.0 0.00 0.00 0.00 27 1010.4
20170426133920 64 354 1.0 4.0 0.00 0.00 0.00 27 1010.4
20170426132421 64 354 0.0 3.0 0.00 0.00 0.00 27 1010.3
20170426130408 63 354 0.0 3.0 0.00 0.00 0.00 26 1010.0
20170426125430 63 355 0.0 2.0 0.00 0.00 0.00 26 1010.0
20170426124907 63 355 0.0 2.0 0.00 0.00 0.00 26 1009.9
20170426124409 63 355 0.0 3.0 0.00 0.00 0.00 26 1009.9
20170426123945 64 355 0.0 4.0 0.00 0.00 0.00 26 1009.8
20170426122939 63 355 1.0 7.0 0.00 0.00 0.00 26 1009.7
20170426122440 63 354 2.0 5.0 0.00 0.00 0.00 26 1009.7
20170426121942 63 358 2.0 5.0 0.00 0.00 0.00 27 1009.6
20170426121422 63 355 2.0 4.0 0.00 0.00 0.00 27 1009.6
20170426120902 63 355 1.0 4.0 0.00 0.00 0.00 27 1009.5
20170426120440 63 355 1.0 4.0 0.00 0.00 0.00 27 1009.5
20170426115926 63 355 1.0 5.0 0.00 0.00 0.00 27 1009.5
20170426115410 63 354 1.0 7.0 0.00 0.00 0.00 27 1009.5
20170426114419 63 0 1.0 4.0 0.00 0.00 0.00 27 1009.3
20170426113436 64 0 1.0 5.0 0.00 0.00 0.00 27 1009.2
20170426112944 64 0 2.0 5.0 0.00 0.00 0.00 26 1009.3
20170426112403 65 351 0.0 5.0 0.00 0.00 0.00 26 1009.2
20170426111407 65 351 0.0 3.0 0.00 0.00 0.00 26 1008.9
20170426110921 65 351 0.0 3.0 0.00 0.00 0.00 26 1009.0
20170426110436 65 350 0.0 5.0 0.00 0.00 0.00 26 1009.0
20170426105928 65 350 1.0 7.0 0.00 0.00 0.00 26 1009.0
20170426104431 63 11 0.0 0.0 0.00 0.00 0.00 27 1008.9
20170426103920 64 11 0.0 0.0 0.00 0.00 0.00 26 1008.9
20170426102911 64 11 0.0 0.0 0.00 0.00 0.00 26 1008.9
20170426101422 65 11 0.0 4.0 0.00 0.00 0.00 25 1008.8
20170426095429 65 354 0.0 4.0 0.00 0.00 0.00 25 1008.5
20170426093929 65 346 1.0 5.0 0.00 0.00 0.00 25 1008.5
20170426090928 68 40 0.0 3.0 0.00 0.00 0.00 23 1008.2
20170426085434 69 1 2.0 10.0 0.00 0.00 0.00 23 1008.2
20170426083423 70 13 2.0 7.0 0.00 0.00 0.00 22 1008.3
20170426082943 71 12 2.0 9.0 0.00 0.00 0.00 21 1008.3
20170426081456 71 338 4.0 15.0 0.00 0.00 0.00 21 1008.1
20170426080953 71 348 5.0 14.0 0.00 0.00 0.00 21 1008.1
20170426075950 69 340 4.0 18.0 0.00 0.00 0.00 21 1008.2
20170426074928 65 2 2.0 7.0 0.00 0.00 0.00 23 1008.3
20170426073449 65 317 0.0 0.0 0.00 0.00 0.00 24 1008.5
20170426072459 66 320 0.0 0.0 0.00 0.00 0.00 24 1008.6
20170426071955 66 320 0.0 0.0 0.00 0.00 0.00 24 1008.6
20170426071446 67 317 0.0 0.0 0.00 0.00 0.00 23 1008.7
20170426070949 68 315 0.0 0.0 0.00 0.00 0.00 23 1008.6
20170426065944 69 315 0.0 0.0 0.00 0.00 0.00 22 1008.5
20170426065437 71 316 0.0 0.0 0.00 0.00 0.00 20 1008.5
20170426064956 71 315 0.0 0.0 0.00 0.00 0.00 20 1008.3
20170426063941 72 316 0.0 4.0 0.00 0.00 0.00 19 1008.3
20170426063415 72 317 0.0 7.0 0.00 0.00 0.00 19 1008.2
20170426062500 73 324 2.0 7.0 0.00 0.00 0.00 19 1008.1
20170426061950 74 321 0.0 8.0 0.00 0.00 0.00 19 1008.0
20170426060458 74 289 0.0 7.0 0.00 0.00 0.00 19 1007.9
20170426060323 74 289 3.0 7.0 0.00 0.00 0.00 19 1007.8
20170426055418 74 302 2.0 6.0 0.00 0.00 0.00 19 1007.8
20170426054916 74 284 1.0 4.0 0.00 0.00 0.00 19 1007.7
20170426054416 73 280 0.0 4.0 0.00 0.00 0.00 19 1007.7
20170426053459 73 301 0.0 3.0 0.00 0.00 0.00 19 1007.6
20170426052915 73 310 0.0 3.0 0.00 0.00 0.00 19 1007.7
20170426051937 74 311 0.0 2.0 0.00 0.00 0.00 18 1007.7
20170426051450 74 310 0.0 2.0 0.00 0.00 0.00 18 1007.6
20170426050923 74 311 0.0 3.0 0.00 0.00 0.00 18 1007.5
20170426050444 75 310 0.0 5.0 0.00 0.00 0.00 18 1007.5
20170426045417 75 296 2.0 5.0 0.00 0.00 0.00 18 1007.3
20170426044936 75 307 2.0 5.0 0.00 0.00 0.00 17 1007.3
20170426043953 76 274 4.0 10.0 0.00 0.00 0.00 17 1007.1
20170426042940 76 308 2.0 8.0 0.00 0.00 0.00 17 1007.0
20170426042449 76 318 2.0 13.0 0.00 0.00 0.00 17 1006.9
20170426041938 76 295 4.0 13.0 0.00 0.00 0.00 17 1006.9
20170426041414 76 289 3.0 7.0 0.00 0.00 0.00 17 1006.7
20170426035421 77 281 3.0 7.0 0.00 0.00 0.00 17 1006.4
20170426034416 77 275 5.0 13.0 0.00 0.00 0.00 17 1006.1
20170426033945 77 256 2.0 11.0 0.00 0.00 0.00 17 1005.9
20170426031955 77 267 2.0 6.0 0.00 0.00 0.00 17 1005.5
20170426030945 78 279 2.0 10.0 0.00 0.00 0.00 17 1005.1
20170426030451 78 286 1.0 17.0 0.00 0.00 0.00 17 1005.1
20170426025930 78 265 4.0 16.0 0.00 0.00 0.00 17 1005.0
20170426024918 79 272 5.0 17.0 0.00 0.00 0.00 16 1004.8
20170426024428 79 266 6.0 24.0 0.00 0.00 0.00 16 1004.6
20170426022433 79 275 10.0 19.0 0.00 0.00 0.00 16 1004.3
20170426021929 79 268 7.0 20.0 0.00 0.00 0.00 16 1004.2
20170426021718 80 276 4.0 20.0 0.00 0.00 0.00 16 1004.1
20170426020414 80 274 13.0 26.0 0.00 0.00 0.00 16 1003.8
20170426014426 81 261 8.0 18.0 0.00 0.00 0.00 15 1003.8
20170426013052 81 293 8.0 20.0 0.00 0.00 0.00 15 1003.5
20170426012429 82 274 6.0 18.0 0.00 0.00 0.00 15 1003.5
20170426011959 82 269 8.0 18.0 0.00 0.00 0.00 15 1003.5
20170426011449 82 274 7.0 20.0 0.00 0.00 0.00 15 1003.3
20170426010429 83 262 6.0 18.0 0.00 0.00 0.00 15 1003.1
20170426005955 83 279 5.0 17.0 0.00 0.00 0.00 15 1003.1
20170426005424 83 270 5.0 17.0 0.00 0.00 0.00 15 1003.1
20170426004423 83 268 7.0 17.0 0.00 0.00 0.00 15 1002.9
20170426004001 83 260 5.0 22.0 0.00 0.00 0.00 15 1003.0
20170426002947 83 250 6.0 17.0 0.00 0.00 0.00 16 1002.8
20170426001449 83 238 7.0 18.0 0.00 0.00 0.00 16 1002.8
20170426000922 84 252 5.0 18.0 0.00 0.00 0.00 16 1002.6
20170425235948 84 278 8.0 18.0 0.00 0.00 0.00 15 1003.0
20170425235452 84 255 9.0 19.0 0.00 0.00 0.00 15 1002.9
20170425234946 84 276 6.0 20.0 0.00 0.00 0.00 16 1002.7
20170425233936 84 287 12.0 19.0 0.00 0.00 0.00 15 1002.9
20170425232943 84 254 4.0 19.0 0.00 0.00 0.00 16 1002.7
20170425232431 84 259 8.0 19.0 0.00 0.00 0.00 16 1002.7
20170425230940 83 243 6.0 15.0 0.00 0.00 0.00 23 1002.9
20170425230446 83 225 3.0 13.0 0.00 0.00 0.00 24 1002.7
20170425225442 83 228 4.0 14.0 0.00 0.00 0.00 24 1002.6
20170425224955 82 219 7.0 21.0 0.00 0.00 0.00 25 1002.5
20170425223051 83 224 5.0 11.0 0.00 0.00 0.00 25 1002.8
20170425222452 83 219 2.0 12.0 0.00 0.00 0.00 25 1002.9
20170425220938 82 214 2.0 10.0 0.00 0.00 0.00 25 1003.1
20170425215431 82 217 4.0 12.0 0.00 0.00 0.00 26 1003.4
20170425214933 82 217 1.0 9.0 0.00 0.00 0.00 25 1003.6
20170425214432 82 226 2.0 7.0 0.00 0.00 0.00 26 1003.9
20170425213915 81 221 1.0 9.0 0.00 0.00 0.00 27 1003.9
20170425213423 81 207 1.0 11.0 0.00 0.00 0.00 27 1004.0
20170425212916 81 217 2.0 11.0 0.00 0.00 0.00 27 1004.2
20170425212000 81 241 0.0 10.0 0.00 0.00 0.00 27 1004.3
20170425210455 80 217 0.0 7.0 0.00 0.00 0.00 27 1004.7
20170425205925 80 226 2.0 7.0 0.00 0.00 0.00 27 1004.6
20170425204419 80 219 2.0 10.0 0.00 0.00 0.00 29 1005.1
20170425202500 80 241 1.0 11.0 0.00 0.00 0.00 28 1005.1
20170425195439 78 237 5.0 13.0 0.00 0.00 0.00 30 1005.4
20170425194957 78 226 1.0 6.0 0.00 0.00 0.00 29 1005.4
20170425194443 78 214 0.0 12.0 0.00 0.00 0.00 30 1005.3
20170425193920 78 212 2.0 12.0 0.00 0.00 0.00 29 1005.6
20170425192424 77 250 1.0 8.0 0.00 0.00 0.00 31 1005.7
20170425191456 77 211 2.0 11.0 0.00 0.00 0.00 31 1005.7
20170425190920 76 214 0.0 5.0 0.00 0.00 0.00 32 1005.5
20170425184949 76 232 1.0 5.0 0.00 0.00 0.00 32 1005.7
20170425183437 76 154 0.0 9.0 0.00 0.00 0.00 33 1006.1
20170425181956 75 202 0.0 7.0 0.00 0.00 0.00 34 1006.2
20170425181434 75 228 1.0 6.0 0.00 0.00 0.00 33 1006.2
20170425180930 75 242 0.0 5.0 0.00 0.00 0.00 34 1006.1
20170425180438 75 189 0.0 6.0 0.00 0.00 0.00 34 1006.2
20170425175956 75 217 2.0 6.0 0.00 0.00 0.00 34 1006.2
20170425175428 75 266 1.0 5.0 0.00 0.00 0.00 33 1006.2
20170425174914 74 181 0.0 5.0 0.00 0.00 0.00 34 1006.3
20170425173918 74 261 1.0 8.0 0.00 0.00 0.00 34 1006.2
20170425172454 74 209 0.0 4.0 0.00 0.00 0.00 33 1006.1
20170425170929 72 238 0.0 7.0 0.00 0.00 0.00 35 1006.1
20170425170500 73 264 0.0 7.0 0.00 0.00 0.00 34 1006.0
20170425163922 72 250 3.0 7.0 0.00 0.00 0.00 36 1005.8
20170425163445 72 263 0.0 3.0 0.00 0.00 0.00 36 1005.6
20170425161947 71 194 0.0 4.0 0.00 0.00 0.00 37 1005.5
20170425155954 71 253 0.0 8.0 0.00 0.00 0.00 37 1005.4
20170425155457 71 251 1.0 10.0 0.00 0.00 0.00 38 1005.4
20170425154918 71 259 3.0 10.0 0.00 0.00 0.00 39 1005.4
20170425153941 71 242 0.0 7.0 0.00 0.00 0.00 40 1005.3
20170425152920 70 239 1.0 6.0 0.00 0.00 0.00 40 1005.1
20170425152433 70 235 1.0 6.0 0.00 0.00 0.00 41 1005.2
20170425151938 70 229 0.0 4.0 0.00 0.00 0.00 41 1005.2
20170425151420 70 241 0.0 4.0 0.00 0.00 0.00 41 1005.1
20170425150945 70 254 0.0 3.0 0.00 0.00 0.00 42 1005.1
20170425145850 69 227 0.0 10.0 0.00 0.00 0.00 42 1005.0
20170425144933 69 241 0.0 10.0 0.00 0.00 0.00 42 1004.9
20170425144448 69 237 2.0 10.0 0.00 0.00 0.00 42 1004.9
20170425142428 68 222 0.0 7.0 0.00 0.00 0.00 44 1004.5
20170425141937 68 227 0.0 4.0 0.00 0.00 0.00 45 1004.4
20170425141429 68 238 0.0 4.0 0.00 0.00 0.00 45 1004.3
20170425140956 67 240 0.0 2.0 0.00 0.00 0.00 46 1004.3
20170425140446 67 242 0.0 4.0 0.00 0.00 0.00 46 1004.3
20170425135945 67 243 0.0 4.0 0.00 0.00 0.00 47 1004.2